THORAD AGENA D DEB, 4656

Orbit data source: Space-Track

THORAD AGENA D DEB, 4656 is space debris in SSO originally from a launch on Wed, 08 Apr 1970 UTC launched from the Air Force Western Test Range (AFWTR). Debris objects in space refer to the collection of defunct objects orbiting the Earth. Examples of debris include non-operational satellites, rocket bodies, and fragments generated from explosions, collisions, or faulty payload assembly.

Loading next visibility...
Identifier
4656, 1970-025AQ
Orbit
SSO
Country
Flag of USUS
Related business
Manufacturer
Unknown
Mission
Spacecraft
Bus & Motor
Unknown
Mass
Unknown
Launch date (UTC)
1970-04-08 (56 years ago)
Launch vehicle
Unknown
Launch site
Air Force Western Test Range (AFWTR)
Object type
Payload
Rocket body
Debris
Shape & HBR
Unknown shape, 0.1 m
Radar Cross Section
Medium (>0.1 m² and <1 m²)

Expand to show TLE details & history
Last TLE update: 7 hours ago

TLE from 7 hours ago
0 THORAD AGENA D DEB
1 04656U 70025AQ  26034.25264440  .00000479  00000-0  60905-3 0  9990
2 04656  99.4020 292.3284 0025042 308.1880 166.2951 13.68490405774983
Epoch: 2026-02-03T06:03Z
TLE epoch observation values (Epoch: 2026-02-03T06:03:48.476Z)
Latitude
63.90389°
Longitude
-92.40734°
Altitude
1,033.9 km
Speed
7.332 km/s
True Right ascension
08h 47m 55s
True Declination
63° 46' 22"
Sunlit
Object was in full shadow at epoch
Visualization orbit readout
Latitude
Unknown
Longitude
Unknown
Altitude
Unknown
Speed
Unknown
Apparent Right ascension
Unknown
Apparent Declination
Unknown
Sunlit
N/A
Visualization observer readout
Local Sidereal Time
14:56:45
Azimuth
Unknown
Elevation
Unknown
Doppler factor
Unknown
Orbital elements
Apogee altitude
1,020.739 km
Perigee altitude
983.775 km
Semi-major axis
7,380.394 km
Eccentricity
0.0025
Inclination
99.402°
RAAN
292.3284°
Arg. of periapsis
308.188°
True anomaly
166.36288°
Mean anomaly
166.2951°
Eccentric anomaly
166.32901°
Mean motion
3.42313 °/min
Orbital period
105.17 mins
BSTAR
0.00060905
Loading maneuver chart data...
Computing Atmospheric mass density...

Documentation

Showing up to 5 results
|